Weather in Panama

Panama     9°01′13″N   79°30′58″W
temp.,
°C
wind,
m/s
gust,
m/s
humid.,
%
clouds,
%
prec.,
mm/h
press.,
hPa
HPBL,
m
6 may, thu
thu601:00+24nw229195 1.9 101262
04:00+24nw229280 0.1 101171
07:00+24nw129081 0.1 1012109
10:00+28s117278 1.6 1013649
13:00+28wsw127799 8.1 1012533
16:00+27nw2483100 5.9 1010383
19:00+25nw249093 6.5 1011193
22:00+24nw239227 1.0 1013110
7 may, fri
fri701:00+23nw239410 1.0 1011103
04:00+23nw2395100 0.0 1010102
07:00+24nw239299 0.1 1012136
10:00+28wnw2377100 4.8 1013451
13:00+29n1274100 13.7 1011597
16:00+27n1281100 8.9 1009164
19:00+25wnw1186100 12.8 101174
22:00+24nw229289 2.1 101374
8 may, sat
sat801:00+23nw3496100 3.8 1012145
04:00+23wnw3496100 0.4 1011157
07:00+24nw2394100 0.6 1012128
10:00+26nnw128497 0.4 1013360
13:00+29e027195 1.5 1011845
16:00+28w1276100 1.7 1009412
19:00+25wnw128692 2.6 1011107
22:00+24nw229280 0.2 101274
9 may, sun
sun901:00+23nnw229367 0.3 101277
04:00+23nw229469 0.0 101175
07:00+24wnw129291 0.1 1012117
10:00+28wnw127746 1.1 1012670
13:00+28n0175100 8.1 1010583
16:00+27nw1282100 6.8 1008154
19:00+25nw2390100 6.9 1009100
22:00+25nw229399 0.4 101182
10 may, mon
mon1001:00+24nw229586 0.4 100986
04:00+24nw239665 0.0 1008122
07:00+24nw249320 0.0 1010167
10:00+29wnw1273100 0.1 1010799
13:00+29w2273100 3.6 1008717
16:00+26nw5990100 5.9 1007567
19:00+25wnw3893100 5.9 1009421
22:00+25nw369496 0.0 1010284